Location: Cantaing
(50.1487°N, 3.1675°E)
Time: 10:17:36
(UTC+00:00)

Cosmos 1844 Rocket - Pass Details

Date: 14 January 2026
Orbit: 822 x 845 km, 71.0° (Epoch: 11 February)

Event Time Altitude Azimuth Distance (km) Brightness Sun altitude
Exits shadow 04:47:53 27° 354° (N) 1,586 4.0 -27.0°
Drops below altitude 10° 04:50:54 10° 18° (NNE) 2,474 5.3 -26.6°
Sets 04:53:34 0° 27° (NNE) 3,415 6.2 -26.1°
